Year,Month,Day,Hour,Minute,Value (Times are PST for temperature in C)
2016,06,15,00,00,8.10
2016,06,15,00,01,8.10
2016,06,15,00,02,8.10
2016,06,15,00,03,8.10
2016,06,15,00,04,8.00
2016,06,15,00,05,8.00
2016,06,15,00,06,8.00
2016,06,15,00,07,8.00
2016,06,15,00,08,8.00
2016,06,15,00,09,8.00
2016,06,15,00,10,8.00
2016,06,15,00,11,7.90
2016,06,15,00,12,7.90
2016,06,15,00,13,7.90
2016,06,15,00,14,7.90
2016,06,15,00,15,7.90
2016,06,15,00,16,7.90
2016,06,15,00,17,7.90
2016,06,15,00,18,7.90
2016,06,15,00,19,7.90
2016,06,15,00,20,7.90
2016,06,15,00,21,7.90
2016,06,15,00,22,7.90
2016,06,15,00,23,7.90
2016,06,15,00,24,7.90
2016,06,15,00,25,7.80
2016,06,15,00,26,7.80
2016,06,15,00,27,7.80
2016,06,15,00,28,7.80
2016,06,15,00,29,7.80
2016,06,15,00,30,7.70
2016,06,15,00,31,7.70
2016,06,15,00,32,7.70
2016,06,15,00,33,7.70
2016,06,15,00,34,7.70
2016,06,15,00,35,7.60
2016,06,15,00,36,7.60
2016,06,15,00,37,7.60
2016,06,15,00,38,7.60
2016,06,15,00,39,7.60
2016,06,15,00,40,7.60
2016,06,15,00,41,7.60
2016,06,15,00,42,7.60
2016,06,15,00,43,7.60
2016,06,15,00,44,7.60
2016,06,15,00,45,7.60
2016,06,15,00,46,7.50
2016,06,15,00,47,7.50
2016,06,15,00,48,7.40
2016,06,15,00,49,7.40
2016,06,15,00,50,7.30
2016,06,15,00,51,7.30
2016,06,15,00,52,7.30
2016,06,15,00,53,7.30
2016,06,15,00,54,7.30
2016,06,15,00,55,7.20
2016,06,15,00,56,7.20
2016,06,15,00,57,7.20
2016,06,15,00,58,7.20
2016,06,15,00,59,7.20
2016,06,15,01,00,7.20
2016,06,15,01,01,7.20
2016,06,15,01,02,7.20
2016,06,15,01,03,7.20
2016,06,15,01,04,7.20
2016,06,15,01,05,7.20
2016,06,15,01,06,7.20
2016,06,15,01,07,7.20
2016,06,15,01,08,7.10
2016,06,15,01,09,7.10
2016,06,15,01,10,7.10
2016,06,15,01,11,7.10
2016,06,15,01,12,7.10
2016,06,15,01,13,7.00
2016,06,15,01,14,7.00
2016,06,15,01,15,7.00
2016,06,15,01,16,7.00
2016,06,15,01,17,6.90
2016,06,15,01,18,6.90
2016,06,15,01,19,6.90
2016,06,15,01,20,6.90
2016,06,15,01,21,6.90
2016,06,15,01,22,6.90
2016,06,15,01,23,6.90
2016,06,15,01,24,6.90
2016,06,15,01,25,6.90
2016,06,15,01,26,6.90
2016,06,15,01,27,6.90
2016,06,15,01,28,6.90
2016,06,15,01,29,6.90
2016,06,15,01,30,6.90
2016,06,15,01,31,6.80
2016,06,15,01,32,6.80
2016,06,15,01,33,6.80
2016,06,15,01,34,6.80
2016,06,15,01,35,6.80
2016,06,15,01,36,6.80
2016,06,15,01,37,6.80
2016,06,15,01,38,6.70
2016,06,15,01,39,6.70
2016,06,15,01,40,6.70
2016,06,15,01,41,6.70
2016,06,15,01,42,6.70
2016,06,15,01,43,6.70
2016,06,15,01,44,6.70
2016,06,15,01,45,6.70
2016,06,15,01,46,6.70
2016,06,15,01,47,6.70
2016,06,15,01,48,6.70
2016,06,15,01,49,6.70
2016,06,15,01,50,6.70
2016,06,15,01,51,6.70
2016,06,15,01,52,6.70
2016,06,15,01,53,6.60
2016,06,15,01,54,6.60
2016,06,15,01,55,6.60
2016,06,15,01,56,6.60
2016,06,15,01,57,6.60
2016,06,15,01,58,6.60
2016,06,15,01,59,6.60
2016,06,15,02,00,6.60
2016,06,15,02,01,6.60
2016,06,15,02,02,6.60
2016,06,15,02,03,6.60
2016,06,15,02,04,6.60
2016,06,15,02,05,6.50
2016,06,15,02,06,6.50
2016,06,15,02,07,6.50
2016,06,15,02,08,6.50
2016,06,15,02,09,6.50
2016,06,15,02,10,6.50
2016,06,15,02,11,6.50
2016,06,15,02,12,6.50
2016,06,15,02,13,6.50
2016,06,15,02,14,6.50
2016,06,15,02,15,6.50
2016,06,15,02,16,6.50
2016,06,15,02,17,6.50
2016,06,15,02,18,6.50
2016,06,15,02,19,6.50
2016,06,15,02,20,6.50
2016,06,15,02,21,6.50
2016,06,15,02,22,6.50
2016,06,15,02,23,6.50
2016,06,15,02,24,6.50
2016,06,15,02,25,6.50
2016,06,15,02,26,6.50
2016,06,15,02,27,6.50
2016,06,15,02,28,6.50
2016,06,15,02,29,6.60
2016,06,15,02,30,6.60
2016,06,15,02,31,6.60
2016,06,15,02,32,6.60
2016,06,15,02,33,6.60
2016,06,15,02,34,6.60
2016,06,15,02,35,6.60
2016,06,15,02,36,6.60
2016,06,15,02,37,6.60
2016,06,15,02,38,6.60
2016,06,15,02,39,6.60
2016,06,15,02,40,6.60
2016,06,15,02,41,6.60
2016,06,15,02,42,6.70
2016,06,15,02,43,6.70
2016,06,15,02,44,6.70
2016,06,15,02,45,6.70
2016,06,15,02,46,6.70
2016,06,15,02,47,6.60
2016,06,15,02,48,6.60
2016,06,15,02,49,6.60
2016,06,15,02,50,6.60
2016,06,15,02,51,6.60
2016,06,15,02,52,6.60
2016,06,15,02,53,6.60
2016,06,15,02,54,6.60
2016,06,15,02,55,6.60
2016,06,15,02,56,6.60
2016,06,15,02,57,6.60
2016,06,15,02,58,6.60
2016,06,15,02,59,6.50
2016,06,15,03,00,6.50
2016,06,15,03,01,6.50
2016,06,15,03,02,6.40
2016,06,15,03,03,6.40
2016,06,15,03,04,6.40
2016,06,15,03,05,6.40
2016,06,15,03,06,6.40
2016,06,15,03,07,6.40
2016,06,15,03,08,6.30
2016,06,15,03,09,6.30
2016,06,15,03,10,6.30
2016,06,15,03,11,6.20
2016,06,15,03,12,6.10
2016,06,15,03,13,6.10
2016,06,15,03,14,6.00
2016,06,15,03,15,6.00
2016,06,15,03,16,5.90
2016,06,15,03,17,5.90
2016,06,15,03,18,5.90
2016,06,15,03,19,5.90
2016,06,15,03,20,5.90
2016,06,15,03,21,5.80
2016,06,15,03,22,5.80
2016,06,15,03,23,5.80
2016,06,15,03,24,5.80
2016,06,15,03,25,5.80
2016,06,15,03,26,5.80
2016,06,15,03,27,5.80
2016,06,15,03,28,5.80
2016,06,15,03,29,5.80
2016,06,15,03,30,5.90
2016,06,15,03,31,5.90
2016,06,15,03,32,5.90
2016,06,15,03,33,5.90
2016,06,15,03,34,5.90
2016,06,15,03,35,5.90
2016,06,15,03,36,6.00
2016,06,15,03,37,6.00
2016,06,15,03,38,6.00
2016,06,15,03,39,6.00
2016,06,15,03,40,6.00
2016,06,15,03,41,6.00
2016,06,15,03,42,6.00
2016,06,15,03,43,6.00
2016,06,15,03,44,6.10
2016,06,15,03,45,6.10
2016,06,15,03,46,6.10
2016,06,15,03,47,6.10
2016,06,15,03,48,6.10
2016,06,15,03,49,6.10
2016,06,15,03,50,6.10
2016,06,15,03,51,6.10
2016,06,15,03,52,6.10
2016,06,15,03,53,6.10
2016,06,15,03,54,6.10
2016,06,15,03,55,6.10
2016,06,15,03,56,6.10
2016,06,15,03,57,6.10
2016,06,15,03,58,6.10
2016,06,15,03,59,6.10
2016,06,15,04,00,6.10
2016,06,15,04,01,6.10
2016,06,15,04,02,6.10
2016,06,15,04,03,6.10
2016,06,15,04,04,6.10
2016,06,15,04,05,6.10
2016,06,15,04,06,6.10
2016,06,15,04,07,6.10
2016,06,15,04,08,6.10
2016,06,15,04,09,6.10
2016,06,15,04,10,6.10
2016,06,15,04,11,6.10
2016,06,15,04,12,6.10
2016,06,15,04,13,6.10
2016,06,15,04,14,6.20
2016,06,15,04,15,6.20
2016,06,15,04,16,6.20
2016,06,15,04,17,6.20
2016,06,15,04,18,6.20
2016,06,15,04,19,6.30
2016,06,15,04,20,6.30
2016,06,15,04,21,6.30
2016,06,15,04,22,6.40
2016,06,15,04,23,6.40
2016,06,15,04,24,6.40
2016,06,15,04,25,6.40
2016,06,15,04,26,6.40
2016,06,15,04,27,6.40
2016,06,15,04,28,6.40
2016,06,15,04,29,6.40
2016,06,15,04,30,6.40
2016,06,15,04,31,6.40
2016,06,15,04,32,6.40
2016,06,15,04,33,6.40
2016,06,15,04,34,6.40
2016,06,15,04,35,6.40
2016,06,15,04,36,6.50
2016,06,15,04,37,6.50
2016,06,15,04,38,6.50
2016,06,15,04,39,6.50
2016,06,15,04,40,6.50
2016,06,15,04,41,6.50
2016,06,15,04,42,6.50
2016,06,15,04,43,6.40
2016,06,15,04,44,6.40
2016,06,15,04,45,6.40
2016,06,15,04,46,6.30
2016,06,15,04,47,6.30
2016,06,15,04,48,6.30
2016,06,15,04,49,6.20
2016,06,15,04,50,6.20
2016,06,15,04,51,6.20
2016,06,15,04,52,6.20
2016,06,15,04,53,6.10
2016,06,15,04,54,6.10
2016,06,15,04,55,6.10
2016,06,15,04,56,6.10
2016,06,15,04,57,6.10
2016,06,15,04,58,6.10
2016,06,15,04,59,6.10
2016,06,15,05,00,6.00
2016,06,15,05,01,6.00
2016,06,15,05,02,6.00
2016,06,15,05,03,5.90
2016,06,15,05,04,5.90
2016,06,15,05,05,5.90
2016,06,15,05,06,5.90
2016,06,15,05,07,5.90
2016,06,15,05,08,5.90
2016,06,15,05,09,5.90
2016,06,15,05,10,5.90
2016,06,15,05,11,5.90
2016,06,15,05,12,5.90
2016,06,15,05,13,5.90
2016,06,15,05,14,5.90
2016,06,15,05,15,5.90
2016,06,15,05,16,5.90
2016,06,15,05,17,5.90
2016,06,15,05,18,5.90
2016,06,15,05,19,5.90
2016,06,15,05,20,5.90
2016,06,15,05,21,5.90
2016,06,15,05,22,5.90
2016,06,15,05,23,5.90
2016,06,15,05,24,5.90
2016,06,15,05,25,5.90
2016,06,15,05,26,5.80
2016,06,15,05,27,5.80
2016,06,15,05,28,5.80
2016,06,15,05,29,5.80
2016,06,15,05,30,5.80
2016,06,15,05,31,5.80
2016,06,15,05,32,5.80
2016,06,15,05,33,5.80
2016,06,15,05,34,5.80
2016,06,15,05,35,5.80
2016,06,15,05,36,5.80
2016,06,15,05,37,5.80
2016,06,15,05,38,5.80
2016,06,15,05,39,5.80
2016,06,15,05,40,5.80
2016,06,15,05,41,5.80
2016,06,15,05,42,5.80
2016,06,15,05,43,5.80
2016,06,15,05,44,5.90
2016,06,15,05,45,5.80
2016,06,15,05,46,5.90
2016,06,15,05,47,5.90
2016,06,15,05,48,5.90
2016,06,15,05,49,5.90
2016,06,15,05,50,5.90
2016,06,15,05,51,5.90
2016,06,15,05,52,5.90
2016,06,15,05,53,5.90
2016,06,15,05,54,5.90
2016,06,15,05,55,5.90
2016,06,15,05,56,5.90
2016,06,15,05,57,5.90
2016,06,15,05,58,5.90
2016,06,15,05,59,6.00
2016,06,15,06,00,6.00
2016,06,15,06,01,6.00
2016,06,15,06,02,6.00
2016,06,15,06,03,6.00
2016,06,15,06,04,6.10
2016,06,15,06,05,6.10
2016,06,15,06,06,6.10
2016,06,15,06,07,6.10
2016,06,15,06,08,6.20
2016,06,15,06,09,6.20
2016,06,15,06,10,6.20
2016,06,15,06,11,6.20
2016,06,15,06,12,6.20
2016,06,15,06,13,6.20
2016,06,15,06,14,6.20
2016,06,15,06,15,6.20
2016,06,15,06,16,6.30
2016,06,15,06,17,6.30
2016,06,15,06,18,6.30
2016,06,15,06,19,6.30
2016,06,15,06,20,6.30
2016,06,15,06,21,6.30
2016,06,15,06,22,6.20
2016,06,15,06,23,6.30
2016,06,15,06,24,6.20
2016,06,15,06,25,6.20
2016,06,15,06,26,6.20
2016,06,15,06,27,6.20
2016,06,15,06,28,6.20
2016,06,15,06,29,6.20
2016,06,15,06,30,6.30
2016,06,15,06,31,6.30
2016,06,15,06,32,6.30
2016,06,15,06,33,6.30
2016,06,15,06,34,6.30
2016,06,15,06,35,6.30
2016,06,15,06,36,6.30
2016,06,15,06,37,6.30
2016,06,15,06,38,6.30
2016,06,15,06,39,6.30
2016,06,15,06,40,6.30
2016,06,15,06,41,6.30
2016,06,15,06,42,6.30
2016,06,15,06,43,6.30
2016,06,15,06,44,6.30
2016,06,15,06,45,6.30
2016,06,15,06,46,6.30
2016,06,15,06,47,6.30
2016,06,15,06,48,6.30
2016,06,15,06,49,6.30
2016,06,15,06,50,6.30
2016,06,15,06,51,6.30
2016,06,15,06,52,6.30
2016,06,15,06,53,6.30
2016,06,15,06,54,6.30
2016,06,15,06,55,6.30
2016,06,15,06,56,6.40
2016,06,15,06,57,6.40
2016,06,15,06,58,6.40
2016,06,15,06,59,6.50
2016,06,15,07,00,6.50
2016,06,15,07,01,6.60
2016,06,15,07,02,6.70
2016,06,15,07,03,6.80
2016,06,15,07,04,6.90
2016,06,15,07,05,7.00
2016,06,15,07,06,7.10
2016,06,15,07,07,7.20
2016,06,15,07,08,7.30
2016,06,15,07,09,7.40
2016,06,15,07,10,7.50
2016,06,15,07,11,7.50
2016,06,15,07,12,7.60
2016,06,15,07,13,7.60
2016,06,15,07,14,7.60
2016,06,15,07,15,7.60
2016,06,15,07,16,7.60
2016,06,15,07,17,7.60
2016,06,15,07,18,7.60
2016,06,15,07,19,7.60
2016,06,15,07,20,7.60
2016,06,15,07,21,7.60
2016,06,15,07,22,7.60
2016,06,15,07,23,7.50
2016,06,15,07,24,7.50
2016,06,15,07,25,7.50
2016,06,15,07,26,7.40
2016,06,15,07,27,7.40
2016,06,15,07,28,7.40
2016,06,15,07,29,7.30
2016,06,15,07,30,7.30
2016,06,15,07,31,7.30
2016,06,15,07,32,7.20
2016,06,15,07,33,7.20
2016,06,15,07,34,7.20
2016,06,15,07,35,7.20
2016,06,15,07,36,7.20
2016,06,15,07,37,7.10
2016,06,15,07,38,7.10
2016,06,15,07,39,7.10
2016,06,15,07,40,7.00
2016,06,15,07,41,7.00
2016,06,15,07,42,7.00
2016,06,15,07,43,6.90
2016,06,15,07,44,6.90
2016,06,15,07,45,6.90
2016,06,15,07,46,6.90
2016,06,15,07,47,6.80
2016,06,15,07,48,6.80
2016,06,15,07,49,6.80
2016,06,15,07,50,6.70
2016,06,15,07,51,6.70
2016,06,15,07,52,6.70
2016,06,15,07,53,6.70
2016,06,15,07,54,6.70
2016,06,15,07,55,6.70
2016,06,15,07,56,6.70
2016,06,15,07,57,6.70
2016,06,15,07,58,6.70
2016,06,15,07,59,6.70
2016,06,15,08,00,6.70
2016,06,15,08,01,6.70
2016,06,15,08,02,6.80
2016,06,15,08,03,6.80
2016,06,15,08,04,6.80
2016,06,15,08,05,6.90
2016,06,15,08,06,6.90
2016,06,15,08,07,7.00
2016,06,15,08,08,7.10
2016,06,15,08,09,7.10
2016,06,15,08,10,7.20
2016,06,15,08,11,7.20
2016,06,15,08,12,7.30
2016,06,15,08,13,7.50
2016,06,15,08,14,7.60
2016,06,15,08,15,7.80
2016,06,15,08,16,7.90
2016,06,15,08,17,8.10
2016,06,15,08,18,8.20
2016,06,15,08,19,8.40
2016,06,15,08,20,8.50
2016,06,15,08,21,8.70
2016,06,15,08,22,8.90
2016,06,15,08,23,9.00
2016,06,15,08,24,9.10
2016,06,15,08,25,9.20
2016,06,15,08,26,9.40
2016,06,15,08,27,9.50
2016,06,15,08,28,9.60
2016,06,15,08,29,9.70
2016,06,15,08,30,9.80
2016,06,15,08,31,10.00
2016,06,15,08,32,10.20
2016,06,15,08,33,10.30
2016,06,15,08,34,10.50
2016,06,15,08,35,10.60
2016,06,15,08,36,10.70
2016,06,15,08,37,10.70
2016,06,15,08,38,10.70
2016,06,15,08,39,10.80
2016,06,15,08,40,10.80
2016,06,15,08,41,10.80
2016,06,15,08,42,10.80
2016,06,15,08,43,10.90
2016,06,15,08,44,10.90
2016,06,15,08,45,11.00
2016,06,15,08,46,11.00
2016,06,15,08,47,11.10
2016,06,15,08,48,11.10
2016,06,15,08,49,11.20
2016,06,15,08,50,11.30
2016,06,15,08,51,11.30
2016,06,15,08,52,11.40
2016,06,15,08,53,11.40
2016,06,15,08,54,11.50
2016,06,15,08,55,11.50
2016,06,15,08,56,11.50
2016,06,15,08,57,11.40
2016,06,15,08,58,11.40
2016,06,15,08,59,11.40
2016,06,15,09,00,11.40
2016,06,15,09,01,11.50
2016,06,15,09,02,11.50
2016,06,15,09,03,11.50
2016,06,15,09,04,11.50
2016,06,15,09,05,11.50
2016,06,15,09,06,11.50
2016,06,15,09,07,11.60
2016,06,15,09,08,11.50
2016,06,15,09,09,11.60
2016,06,15,09,10,11.60
2016,06,15,09,11,11.60
2016,06,15,09,12,11.50
2016,06,15,09,13,11.50
2016,06,15,09,14,11.50
2016,06,15,09,15,11.50
2016,06,15,09,16,11.60
2016,06,15,09,17,11.50
2016,06,15,09,18,11.50
2016,06,15,09,19,11.40
2016,06,15,09,20,11.40
2016,06,15,09,21,11.40
2016,06,15,09,22,11.40
2016,06,15,09,23,11.50
2016,06,15,09,24,11.60
2016,06,15,09,25,11.60
2016,06,15,09,26,11.60
2016,06,15,09,27,11.70
2016,06,15,09,28,11.80
2016,06,15,09,29,11.70
2016,06,15,09,30,11.60
2016,06,15,09,31,11.40
2016,06,15,09,32,11.40
2016,06,15,09,33,11.40
2016,06,15,09,34,11.40
2016,06,15,09,35,11.50
2016,06,15,09,36,11.60
2016,06,15,09,37,11.70
2016,06,15,09,38,11.80
2016,06,15,09,39,11.80
2016,06,15,09,40,11.70
2016,06,15,09,41,11.80
2016,06,15,09,42,11.80
2016,06,15,09,43,11.70
2016,06,15,09,44,11.80
2016,06,15,09,45,11.90
2016,06,15,09,46,12.00
2016,06,15,09,47,12.10
2016,06,15,09,48,12.20
2016,06,15,09,49,12.30
2016,06,15,09,50,12.30
2016,06,15,09,51,12.30
2016,06,15,09,52,12.40
2016,06,15,09,53,12.40
2016,06,15,09,54,12.50
2016,06,15,09,55,12.50
2016,06,15,09,56,12.60
2016,06,15,09,57,12.50
2016,06,15,09,58,12.50
2016,06,15,09,59,12.60
2016,06,15,10,00,12.50
2016,06,15,10,01,12.50
2016,06,15,10,02,12.50
2016,06,15,10,03,12.60
2016,06,15,10,04,12.70
2016,06,15,10,05,12.70
2016,06,15,10,06,12.70
2016,06,15,10,07,12.60
2016,06,15,10,08,12.70
2016,06,15,10,09,12.70
2016,06,15,10,10,12.80
2016,06,15,10,11,12.80
2016,06,15,10,12,12.80
2016,06,15,10,13,12.80
2016,06,15,10,14,12.90
2016,06,15,10,15,12.90
2016,06,15,10,16,12.90
2016,06,15,10,17,12.90
2016,06,15,10,18,12.90
2016,06,15,10,19,12.80
2016,06,15,10,20,12.70
2016,06,15,10,21,12.70
2016,06,15,10,22,12.70
2016,06,15,10,23,12.70
2016,06,15,10,24,12.60
2016,06,15,10,25,12.70
2016,06,15,10,26,12.70
2016,06,15,10,27,12.60
2016,06,15,10,28,12.50
2016,06,15,10,29,12.40
2016,06,15,10,30,12.50
2016,06,15,10,31,12.60
2016,06,15,10,32,12.70
2016,06,15,10,33,12.70
2016,06,15,10,34,12.80
2016,06,15,10,35,12.80
2016,06,15,10,36,12.80
2016,06,15,10,37,12.80
2016,06,15,10,38,12.80
2016,06,15,10,39,12.70
2016,06,15,10,40,12.60
2016,06,15,10,41,12.60
2016,06,15,10,42,12.60
2016,06,15,10,43,12.70
2016,06,15,10,44,12.90
2016,06,15,10,45,13.10
2016,06,15,10,46,13.20
2016,06,15,10,47,13.40
2016,06,15,10,48,13.50
2016,06,15,10,49,13.60
2016,06,15,10,50,13.60
2016,06,15,10,51,13.50
2016,06,15,10,52,13.40
2016,06,15,10,53,13.40
2016,06,15,10,54,13.20
2016,06,15,10,55,13.10
2016,06,15,10,56,13.00
2016,06,15,10,57,12.90
2016,06,15,10,58,12.80
2016,06,15,10,59,12.70
2016,06,15,11,00,12.60
2016,06,15,11,01,12.50
2016,06,15,11,02,12.50
2016,06,15,11,03,12.50
2016,06,15,11,04,12.50
2016,06,15,11,05,12.50
2016,06,15,11,06,12.50
2016,06,15,11,07,12.40
2016,06,15,11,08,12.40
2016,06,15,11,09,12.30
2016,06,15,11,10,12.30
2016,06,15,11,11,12.30
2016,06,15,11,12,12.20
2016,06,15,11,13,12.20
2016,06,15,11,14,12.20
2016,06,15,11,15,12.20
2016,06,15,11,16,12.20
2016,06,15,11,17,12.20
2016,06,15,11,18,12.20
2016,06,15,11,19,12.10
2016,06,15,11,20,12.10
2016,06,15,11,21,12.00
2016,06,15,11,22,12.00
2016,06,15,11,23,12.00
2016,06,15,11,24,11.90
2016,06,15,11,25,11.90
2016,06,15,11,26,11.90
2016,06,15,11,27,11.80
2016,06,15,11,28,11.80
2016,06,15,11,29,11.70
2016,06,15,11,30,11.70
2016,06,15,11,31,11.70
2016,06,15,11,32,11.60
2016,06,15,11,33,11.60
2016,06,15,11,34,11.60
2016,06,15,11,35,11.60
2016,06,15,11,36,11.60
2016,06,15,11,37,11.60
2016,06,15,11,38,11.50
2016,06,15,11,39,11.50
2016,06,15,11,40,11.50
2016,06,15,11,41,11.50
2016,06,15,11,42,11.50
2016,06,15,11,43,11.60
2016,06,15,11,44,11.60
2016,06,15,11,45,11.60
2016,06,15,11,46,11.60
2016,06,15,11,47,11.60
2016,06,15,11,48,11.50
2016,06,15,11,49,11.50
2016,06,15,11,50,11.40
2016,06,15,11,51,11.40
2016,06,15,11,52,11.40
2016,06,15,11,53,11.40
2016,06,15,11,54,11.30
2016,06,15,11,55,11.30
2016,06,15,11,56,11.30
2016,06,15,11,57,11.30
2016,06,15,11,58,11.30
2016,06,15,11,59,11.30
2016,06,15,12,00,11.30
2016,06,15,12,01,11.30
2016,06,15,12,02,11.10
2016,06,15,12,03,10.90
2016,06,15,12,04,10.70
2016,06,15,12,05,10.60
2016,06,15,12,06,10.50
2016,06,15,12,07,10.50
2016,06,15,12,08,10.40
2016,06,15,12,09,10.30
2016,06,15,12,10,10.20
2016,06,15,12,11,10.20
2016,06,15,12,12,10.10
2016,06,15,12,13,10.10
2016,06,15,12,14,10.10
2016,06,15,12,15,10.10
2016,06,15,12,16,10.10
2016,06,15,12,17,10.10
2016,06,15,12,18,10.10
2016,06,15,12,19,10.10
2016,06,15,12,20,10.10
2016,06,15,12,21,10.10
2016,06,15,12,22,10.10
2016,06,15,12,23,10.10
2016,06,15,12,24,10.10
2016,06,15,12,25,10.20
2016,06,15,12,26,10.20
2016,06,15,12,27,10.20
2016,06,15,12,28,10.20
2016,06,15,12,29,10.20
2016,06,15,12,30,10.20
2016,06,15,12,31,10.20
2016,06,15,12,32,10.20
2016,06,15,12,33,10.20
2016,06,15,12,34,10.20
2016,06,15,12,35,10.30
2016,06,15,12,36,10.30
2016,06,15,12,37,10.30
2016,06,15,12,38,10.30
2016,06,15,12,39,10.30
2016,06,15,12,40,10.30
2016,06,15,12,41,10.40
2016,06,15,12,42,10.40
2016,06,15,12,43,10.50
2016,06,15,12,44,10.50
2016,06,15,12,45,10.60
2016,06,15,12,46,10.60
2016,06,15,12,47,10.70
2016,06,15,12,48,10.70
2016,06,15,12,49,10.80
2016,06,15,12,50,10.80
2016,06,15,12,51,10.90
2016,06,15,12,52,11.10
2016,06,15,12,53,11.10
2016,06,15,12,54,11.20
2016,06,15,12,55,11.30
2016,06,15,12,56,11.30
2016,06,15,12,57,11.40
2016,06,15,12,58,11.40
2016,06,15,12,59,11.40
2016,06,15,13,00,11.50
2016,06,15,13,01,11.60
2016,06,15,13,02,11.70
2016,06,15,13,03,11.70
2016,06,15,13,04,11.70
2016,06,15,13,05,11.70
2016,06,15,13,06,11.60
2016,06,15,13,07,11.70
2016,06,15,13,08,11.70
2016,06,15,13,09,11.80
2016,06,15,13,10,11.80
2016,06,15,13,11,11.90
2016,06,15,13,12,12.00
2016,06,15,13,13,12.00
2016,06,15,13,14,11.90
2016,06,15,13,15,11.80
2016,06,15,13,16,11.80
2016,06,15,13,17,11.90
2016,06,15,13,18,11.90
2016,06,15,13,19,11.90
2016,06,15,13,20,11.90
2016,06,15,13,21,11.90
2016,06,15,13,22,12.00
2016,06,15,13,23,12.00
2016,06,15,13,24,12.00
2016,06,15,13,25,12.00
2016,06,15,13,26,12.00
2016,06,15,13,27,12.00
2016,06,15,13,28,12.00
2016,06,15,13,29,12.00
2016,06,15,13,30,12.00
2016,06,15,13,31,11.90
2016,06,15,13,32,11.80
2016,06,15,13,33,11.80
2016,06,15,13,34,11.80
2016,06,15,13,35,11.80
2016,06,15,13,36,11.80
2016,06,15,13,37,11.80
2016,06,15,13,38,11.70
2016,06,15,13,39,11.70
2016,06,15,13,40,11.70
2016,06,15,13,41,11.80
2016,06,15,13,42,11.80
2016,06,15,13,43,11.80
2016,06,15,13,44,11.90
2016,06,15,13,45,12.00
2016,06,15,13,46,12.10
2016,06,15,13,47,12.30
2016,06,15,13,48,12.40
2016,06,15,13,49,12.40
2016,06,15,13,50,12.50
2016,06,15,13,51,12.60
2016,06,15,13,52,12.60
2016,06,15,13,53,12.60
2016,06,15,13,54,12.70
2016,06,15,13,55,12.90
2016,06,15,13,56,13.10
2016,06,15,13,57,13.20
2016,06,15,13,58,13.30
2016,06,15,13,59,13.40
2016,06,15,14,00,13.40
2016,06,15,14,01,13.40
2016,06,15,14,02,13.50
2016,06,15,14,03,13.50
2016,06,15,14,04,13.50
2016,06,15,14,05,13.60
2016,06,15,14,06,13.60
2016,06,15,14,07,13.60
2016,06,15,14,08,13.60
2016,06,15,14,09,13.60
2016,06,15,14,10,13.50
2016,06,15,14,11,13.40
2016,06,15,14,12,13.30
2016,06,15,14,13,13.20
2016,06,15,14,14,13.10
2016,06,15,14,15,13.00
2016,06,15,14,16,12.90
2016,06,15,14,17,12.80
2016,06,15,14,18,12.70
2016,06,15,14,19,12.60
2016,06,15,14,20,12.60
2016,06,15,14,21,12.60
2016,06,15,14,22,12.60
2016,06,15,14,23,12.60
2016,06,15,14,24,12.70
2016,06,15,14,25,12.70
2016,06,15,14,26,12.80
2016,06,15,14,27,12.80
2016,06,15,14,28,12.90
2016,06,15,14,29,13.00
2016,06,15,14,30,13.10
2016,06,15,14,31,13.20
2016,06,15,14,32,13.20
2016,06,15,14,33,13.20
2016,06,15,14,34,13.20
2016,06,15,14,35,13.20
2016,06,15,14,36,13.20
2016,06,15,14,37,13.30
2016,06,15,14,38,13.30
2016,06,15,14,39,13.30
2016,06,15,14,40,13.40
2016,06,15,14,41,13.40
2016,06,15,14,42,13.50
2016,06,15,14,43,13.50
2016,06,15,14,44,13.60
2016,06,15,14,45,13.70
2016,06,15,14,46,13.60
2016,06,15,14,47,13.50
2016,06,15,14,48,13.40
2016,06,15,14,49,13.30
2016,06,15,14,50,13.40
2016,06,15,14,51,13.60
2016,06,15,14,52,13.70
2016,06,15,14,53,13.90
2016,06,15,14,54,14.10
2016,06,15,14,55,14.10
2016,06,15,14,56,14.00
2016,06,15,14,57,13.90
2016,06,15,14,58,13.90
2016,06,15,14,59,13.80
2016,06,15,15,00,13.80
2016,06,15,15,01,13.90
2016,06,15,15,02,14.00
2016,06,15,15,03,14.10
2016,06,15,15,04,14.10
2016,06,15,15,05,14.20
2016,06,15,15,06,14.30
2016,06,15,15,07,14.30
2016,06,15,15,08,14.30
2016,06,15,15,09,14.20
2016,06,15,15,10,14.20
2016,06,15,15,11,14.30
2016,06,15,15,12,14.50
2016,06,15,15,13,14.50
2016,06,15,15,14,14.60
2016,06,15,15,15,14.60
2016,06,15,15,16,14.60
2016,06,15,15,17,14.70
2016,06,15,15,18,14.70
2016,06,15,15,19,14.80
2016,06,15,15,20,14.80
2016,06,15,15,21,14.70
2016,06,15,15,22,14.70
2016,06,15,15,23,14.70
2016,06,15,15,24,14.70
2016,06,15,15,25,14.60
2016,06,15,15,26,14.60
2016,06,15,15,27,14.70
2016,06,15,15,28,14.60
2016,06,15,15,29,14.70
2016,06,15,15,30,14.80
2016,06,15,15,31,14.80
2016,06,15,15,32,14.80
2016,06,15,15,33,14.90
2016,06,15,15,34,14.90
2016,06,15,15,35,15.00
2016,06,15,15,36,15.00
2016,06,15,15,37,15.00
2016,06,15,15,38,15.00
2016,06,15,15,39,15.10
2016,06,15,15,40,15.10
2016,06,15,15,41,15.10
2016,06,15,15,42,15.20
2016,06,15,15,43,15.30
2016,06,15,15,44,15.40
2016,06,15,15,45,15.50
2016,06,15,15,46,15.40
2016,06,15,15,47,15.30
2016,06,15,15,48,15.20
2016,06,15,15,49,15.10
2016,06,15,15,50,15.00
2016,06,15,15,51,15.00
2016,06,15,15,52,15.00
2016,06,15,15,53,14.80
2016,06,15,15,54,14.70
2016,06,15,15,55,14.50
2016,06,15,15,56,14.50
2016,06,15,15,57,14.40
2016,06,15,15,58,14.40
2016,06,15,15,59,14.40
2016,06,15,16,00,14.40
2016,06,15,16,01,14.40
2016,06,15,16,02,14.40
2016,06,15,16,03,14.50
2016,06,15,16,04,14.60
2016,06,15,16,05,14.60
2016,06,15,16,06,14.60
2016,06,15,16,07,14.50
2016,06,15,16,08,14.50
2016,06,15,16,09,14.50
2016,06,15,16,10,14.50
2016,06,15,16,11,14.50
2016,06,15,16,12,14.70
2016,06,15,16,13,14.80
2016,06,15,16,14,14.80
2016,06,15,16,15,14.80
2016,06,15,16,16,14.80
2016,06,15,16,17,14.80
2016,06,15,16,18,14.70
2016,06,15,16,19,14.70
2016,06,15,16,20,14.60
2016,06,15,16,21,14.50
2016,06,15,16,22,14.40
2016,06,15,16,23,14.30
2016,06,15,16,24,14.30
2016,06,15,16,25,14.30
2016,06,15,16,26,14.30
2016,06,15,16,27,14.40
2016,06,15,16,28,14.40
2016,06,15,16,29,14.40
2016,06,15,16,30,14.40
2016,06,15,16,31,14.40
2016,06,15,16,32,14.30
2016,06,15,16,33,14.30
2016,06,15,16,34,14.20
2016,06,15,16,35,14.10
2016,06,15,16,36,14.10
2016,06,15,16,37,14.10
2016,06,15,16,38,14.20
2016,06,15,16,39,14.20
2016,06,15,16,40,14.30
2016,06,15,16,41,14.30
2016,06,15,16,42,14.40
2016,06,15,16,43,14.40
2016,06,15,16,44,14.40
2016,06,15,16,45,14.50
2016,06,15,16,46,14.50
2016,06,15,16,47,14.60
2016,06,15,16,48,14.70
2016,06,15,16,49,14.80
2016,06,15,16,50,14.90
2016,06,15,16,51,15.00
2016,06,15,16,52,15.00
2016,06,15,16,53,15.00
2016,06,15,16,54,15.00
2016,06,15,16,55,14.90
2016,06,15,16,56,14.80
2016,06,15,16,57,14.80
2016,06,15,16,58,14.80
2016,06,15,16,59,14.70
2016,06,15,17,00,14.60
2016,06,15,17,01,14.60
2016,06,15,17,02,14.50
2016,06,15,17,03,14.50
2016,06,15,17,04,14.60
2016,06,15,17,05,14.60
2016,06,15,17,06,14.60
2016,06,15,17,07,14.60
2016,06,15,17,08,14.70
2016,06,15,17,09,14.70
2016,06,15,17,10,14.70
2016,06,15,17,11,14.70
2016,06,15,17,12,14.70
2016,06,15,17,13,14.70
2016,06,15,17,14,14.60
2016,06,15,17,15,14.60
2016,06,15,17,16,14.70
2016,06,15,17,17,14.70
2016,06,15,17,18,14.70
2016,06,15,17,19,14.80
2016,06,15,17,20,14.80
2016,06,15,17,21,14.80
2016,06,15,17,22,14.80
2016,06,15,17,23,14.80
2016,06,15,17,24,14.60
2016,06,15,17,25,14.60
2016,06,15,17,26,14.60
2016,06,15,17,27,14.60
2016,06,15,17,28,14.60
2016,06,15,17,29,14.60
2016,06,15,17,30,14.60
2016,06,15,17,31,14.60
2016,06,15,17,32,14.60
2016,06,15,17,33,14.60
2016,06,15,17,34,14.60
2016,06,15,17,35,14.60
2016,06,15,17,36,14.50
2016,06,15,17,37,14.50
2016,06,15,17,38,14.40
2016,06,15,17,39,14.50
2016,06,15,17,40,14.50
2016,06,15,17,41,14.60